When you browse on this site, cookies collect data to enhance your experience and personalize the content and advertising you see.
Visit our Privacy Policy to learn more. By continuing to use the site, you agree to this use of cookies and data.
  • In Hungary
  • List of Countries
  • For 7 days
  • Water Temperature
  • Satellite Maps
  • Weather Map
  • News
  • Weather Widgets
  • user-avatar
    Login

    Hourly Weather Lourdes

    Today, 23 March, Saturday

    Time Temperature Precipitation Wind Pressure Humidity
    00:00 +8°C° 0 mm 2 mps 703 mmHg 70%
    01:00 +7°C° 0 mm 2 mps 703 mmHg 71%
    02:00 +7°C° 0 mm 2 mps 703 mmHg 71%
    03:00 +7°C° 0 mm 2 mps 703 mmHg 71%
    04:00 +7°C° 0 mm 2 mps 703 mmHg 70%
    05:00 +7°C° 0 mm 2 mps 703 mmHg 70%
    06:00 +7°C° 0 mm 2 mps 703 mmHg 70%
    07:00 +10°C° 0 mm 1 mps 703 mmHg 64%
    08:00 +12°C° 0 mm 1 mps 703 mmHg 58%
    09:00 +14°C° 0 mm 0 mps 704 mmHg 52%
    10:00 +16°C° 0 mm 1 mps 704 mmHg 49%
    11:00 +18°C° 0 mm 1 mps 704 mmHg 47%
    12:00 +19°C° 0 mm 1 mps 704 mmHg 44%
    13:00 +18°C° 0 mm 2 mps 703 mmHg 46%
    14:00 +17°C° 0 mm 2 mps 703 mmHg 48%
    15:00 +17°C° 0 mm 2 mps 702 mmHg 50%
    16:00 +15°C° 0 mm 1 mps 702 mmHg 60%
    17:00 +14°C° 0 mm 1 mps 701 mmHg 69%
    18:00 +12°C° 0 mm 1 mps 701 mmHg 78%
    19:00 +11°C° 0 mm 1 mps 701 mmHg 79%
    20:00 +10°C° 0 mm 1 mps 701 mmHg 80%
    21:00 +9°C° 0 mm 2 mps 702 mmHg 81%
    22:00 +8°C° 0 mm 2 mps 702 mmHg 80%
    23:00 +8°C° 0 mm 2 mps 702 mmHg 79%

    Tomorrow, 24 March, Sunday

    Time Temperature Precipitation Wind Pressure Humidity
    00:00 +8°C° 0 mm 2 mps 702 mmHg 78%
    01:00 +8°C° 0 mm 2 mps 701 mmHg 78%
    02:00 +8°C° 0 mm 2 mps 701 mmHg 77%
    03:00 +8°C° 0 mm 2 mps 701 mmHg 76%
    04:00 +7°C° 0 mm 2 mps 701 mmHg 75%
    05:00 +7°C° 0 mm 2 mps 701 mmHg 74%
    06:00 +8°C° 0 mm 1 mps 701 mmHg 74%
    07:00 +10°C° 0 mm 1 mps 702 mmHg 67%
    08:00 +12°C° 0 mm 1 mps 702 mmHg 60%
    09:00 +15°C° 0 mm 1 mps 703 mmHg 53%
    10:00 +15°C° 0 mm 1 mps 703 mmHg 50%
    11:00 +16°C° 0 mm 1 mps 703 mmHg 48%
    12:00 +17°C° 0 mm 2 mps 703 mmHg 46%
    13:00 +17°C° 0 mm 2 mps 702 mmHg 49%
    14:00 +17°C° 0 mm 2 mps 702 mmHg 51%
    15:00 +16°C° 0 mm 2 mps 701 mmHg 54%
    16:00 +15°C° 0 mm 1 mps 701 mmHg 62%
    17:00 +13°C° 0 mm 1 mps 701 mmHg 70%
    18:00 +11°C° 0 mm 1 mps 700 mmHg 78%
    19:00 +11°C° 0 mm 1 mps 701 mmHg 80%
    20:00 +10°C° 0 mm 1 mps 701 mmHg 81%
    21:00 +9°C° 0 mm 1 mps 701 mmHg 83%
    22:00 +8°C° 0 mm 1 mps 701 mmHg 83%
    23:00 +8°C° 0 mm 1 mps 701 mmHg 82%

    Day after tomorrow, 25 March, Monday

    Time Temperature Precipitation Wind Pressure Humidity
    00:00 +7°C° 0 mm 1 mps 701 mmHg 82%
    01:00 +7°C° 0 mm 1 mps 701 mmHg 82%
    02:00 +7°C° 0 mm 1 mps 700 mmHg 81%
    03:00 +7°C° 0 mm 1 mps 700 mmHg 81%
    04:00 +6°C° 0 mm 1 mps 700 mmHg 83%
    05:00 +6°C° 0 mm 1 mps 700 mmHg 85%
    06:00 +5°C° 0 mm 1 mps 700 mmHg 86%
    07:00 +7°C° 0 mm 1 mps 700 mmHg 81%
    08:00 +9°C° 0 mm 1 mps 701 mmHg 76%
    09:00 +10°C° 0 mm 2 mps 701 mmHg 71%
    10:00 +10°C° 0 mm 2 mps 701 mmHg 70%
    11:00 +12°C° 0 mm 2 mps 701 mmHg 70%
    12:00 +11°C° 0 mm 3 mps 701 mmHg 69%
    13:00 +12°C° 0 mm 2 mps 700 mmHg 70%
    14:00 +10°C° 0 mm 2 mps 700 mmHg 71%
    15:00 +10°C° 0 mm 2 mps 699 mmHg 72%
    16:00 +9°C° 0 mm 2 mps 699 mmHg 76%
    17:00 +9°C° 0 mm 1 mps 699 mmHg 80%
    18:00 +8°C° 0 mm 1 mps 699 mmHg 84%
    19:00 +7°C° 0 mm 1 mps 699 mmHg 85%
    20:00 +7°C° 0 mm 1 mps 700 mmHg 86%
    21:00 +6°C° 0 mm 1 mps 700 mmHg 87%
    22:00 +6°C° 0 mm 1 mps 700 mmHg 88%
    23:00 +5°C° 0 mm 1 mps 700 mmHg 89%

    26 March, Tuesday

    Time Temperature Precipitation Wind Pressure Humidity
    00:00 +4°C° 0 mm 1 mps 700 mmHg 90%
    01:00 +4°C° 0 mm 1 mps 700 mmHg 90%
    02:00 +3°C° 0 mm 1 mps 700 mmHg 89%
    03:00 +3°C° 0 mm 1 mps 700 mmHg 88%
    04:00 +2°C° 0 mm 1 mps 700 mmHg 86%
    05:00 +2°C° 0 mm 1 mps 700 mmHg 83%
    06:00 +2°C° 0 mm 1 mps 700 mmHg 80%
    07:00 +4°C° 0 mm 1 mps 701 mmHg 69%
    08:00 +5°C° 0 mm 2 mps 701 mmHg 59%
    09:00 +8°C° 0 mm 2 mps 702 mmHg 48%
    10:00 +9°C° 0 mm 2 mps 702 mmHg 46%
    11:00 +10°C° 0 mm 3 mps 702 mmHg 43%
    12:00 +11°C° 0 mm 3 mps 702 mmHg 40%
    13:00 +12°C° 0 mm 3 mps 701 mmHg 41%
    14:00 +12°C° 0 mm 3 mps 701 mmHg 42%
    15:00 +12°C° 0 mm 3 mps 701 mmHg 43%
    16:00 +10°C° 0 mm 2 mps 701 mmHg 51%
    17:00 +8°C° 0 mm 2 mps 701 mmHg 59%
    18:00 +7°C° 0 mm 1 mps 701 mmHg 67%
    19:00 +7°C° 0 mm 1 mps 701 mmHg 67%
    20:00 +6°C° 0 mm 1 mps 702 mmHg 68%
    21:00 +5°C° 0 mm 2 mps 702 mmHg 69%
    22:00 +5°C° 0 mm 1 mps 702 mmHg 71%
    23:00 +5°C° 0 mm 1 mps 702 mmHg 73%

    27 March, Wednesday

    Time Temperature Precipitation Wind Pressure Humidity
    00:00 +5°C° 0 mm 1 mps 702 mmHg 76%
    01:00 +5°C° 0 mm 1 mps 702 mmHg 76%
    02:00 +4°C° 0 mm 1 mps 702 mmHg 76%
    03:00 +4°C° 0 mm 1 mps 702 mmHg 76%
    04:00 +4°C° 0 mm 1 mps 702 mmHg 69%
    05:00 +4°C° 0 mm 1 mps 702 mmHg 61%
    06:00 +4°C° 0 mm 1 mps 702 mmHg 53%
    07:00 +6°C° 0 mm 1 mps 703 mmHg 47%
    08:00 +9°C° 0 mm 1 mps 703 mmHg 41%
    09:00 +11°C° 0 mm 1 mps 704 mmHg 36%
    10:00 +12°C° 0 mm 1 mps 704 mmHg 36%
    11:00 +13°C° 0 mm 2 mps 703 mmHg 37%
    12:00 +14°C° 0 mm 2 mps 703 mmHg 37%
    13:00 +14°C° 0 mm 2 mps 703 mmHg 40%
    14:00 +14°C° 0 mm 2 mps 702 mmHg 42%
    15:00 +14°C° 0 mm 2 mps 702 mmHg 45%
    16:00 +13°C° 0 mm 2 mps 701 mmHg 54%
    17:00 +11°C° 0 mm 1 mps 701 mmHg 63%
    18:00 +9°C° 0 mm 1 mps 701 mmHg 72%
    19:00 +8°C° 0 mm 1 mps 701 mmHg 72%
    20:00 +6°C° 0 mm 2 mps 701 mmHg 71%
    21:00 +6°C° 0 mm 2 mps 702 mmHg 71%
    22:00 +5°C° 0 mm 2 mps 702 mmHg 68%
    23:00 +6°C° 0 mm 1 mps 701 mmHg 65%

    28 March, Thursday

    Time Temperature Precipitation Wind Pressure Humidity
    00:00 +6°C° 0 mm 1 mps 701 mmHg 62%
    01:00 +6°C° 0 mm 1 mps 701 mmHg 57%
    02:00 +6°C° 0 mm 1 mps 701 mmHg 53%
    03:00 +5°C° 0 mm 1 mps 701 mmHg 49%
    04:00 +5°C° 0 mm 1 mps 701 mmHg 47%
    05:00 +5°C° 0 mm 1 mps 701 mmHg 44%
    06:00 +5°C° 0 mm 1 mps 701 mmHg 42%
    07:00 +8°C° 0 mm 1 mps 701 mmHg 41%
    08:00 +10°C° 0 mm 1 mps 702 mmHg 39%
    09:00 +13°C° 0 mm 1 mps 702 mmHg 38%
    10:00 +14°C° 0 mm 1 mps 702 mmHg 38%
    11:00 +14°C° 0 mm 2 mps 702 mmHg 39%
    12:00 +15°C° 0 mm 2 mps 702 mmHg 39%
    13:00 +15°C° 0 mm 2 mps 702 mmHg 42%
    14:00 +15°C° 0 mm 2 mps 701 mmHg 45%
    15:00 +15°C° 0 mm 2 mps 701 mmHg 47%
    16:00 +14°C° 0 mm 2 mps 701 mmHg 56%
    17:00 +12°C° 0 mm 2 mps 701 mmHg 65%
    18:00 +10°C° 0 mm 1 mps 701 mmHg 74%
    19:00 +9°C° 0 mm 1 mps 701 mmHg 75%
    20:00 +9°C° 0 mm 1 mps 701 mmHg 77%
    21:00 +8°C° 0 mm 1 mps 702 mmHg 79%
    22:00 +7°C° 0 mm 1 mps 702 mmHg 79%
    23:00 +7°C° 0 mm 1 mps 702 mmHg 79%
    Show more